OM6ACB-6 Weather Reports


Display with metric or nautical units.
time (UTC)temp
F
wind
direction
speed
MPH
gust
MPH
rain 1hr
in
rain 24hr
in
rain mn
in
humidity
%
barometer
mb
20260903021428 56 181 0.0 2.0 0.00 0.00 0.00 34 1023.4
20260903020428 55 181 1.0 2.0 0.00 0.00 0.00 36 1023.3
20260903015428 54 0 0.0 0.0 0.02 0.02 0.02 41 1023.3
20260903014428 53 90 0.0 0.0 0.00 0.00 0.00 38 1023.3
20260903013427 53 141 1.0 3.0 0.00 0.00 0.00 33 1023.3
20260903012427 53 181 0.0 2.0 0.00 0.00 0.00 36 1023.3
20260903011427 53 94 0.0 2.0 0.00 0.00 0.00 30 1023.4
20260903010426 54 9 0.0 3.0 0.00 0.00 0.00 27 1023.3
20260903005426 53 355 1.0 3.0 0.00 0.00 0.00 27 1023.1
20260903004426 52 342 1.0 3.0 0.00 0.00 0.00 32 1023.0
20260903003425 51 0 0.0 0.0 0.00 0.00 0.00 37 1022.6
20260903002425 51 0 0.0 0.0 0.00 0.00 0.00 38 1022.6
20260903001425 51 0 0.0 0.0 0.00 0.00 0.00 39 1022.6
20260903000425 50 0 0.0 0.0 0.00 0.00 0.00 40 1022.6
20260902235424 49 0 0.0 0.0 0.00 0.00 0.00 38 1022.6
20260902234424 50 0 0.0 0.0 0.00 0.00 0.00 39 1022.8
20260902233424 50 0 0.0 0.0 0.00 0.00 0.00 39 1022.8
20260902232423 50 0 0.0 0.0 0.00 0.00 0.00 40 1022.8
20260902231423 50 0 0.0 0.0 0.00 0.00 0.00 40 1022.9
20260902230423 50 0 0.0 0.0 0.00 0.00 0.00 36 1023.0
20260902225423 51 0 0.0 0.0 0.00 0.00 0.00 35 1023.0
20260902224422 50 0 0.0 0.0 0.00 0.00 0.00 39 1023.0
20260902223422 50 0 0.0 0.0 0.00 0.00 0.00 34 1023.0
20260902222422 51 0 0.0 0.0 0.00 0.00 0.00 41 1022.9
20260902221421 50 0 0.0 0.0 0.00 0.00 0.00 39 1023.0
20260902220421 51 0 0.0 0.0 0.00 0.00 0.00 39 1023.0
20260902215421 51 0 0.0 0.0 0.00 0.00 0.00 40 1022.9
20260902214421 50 0 0.0 0.0 0.00 0.00 0.00 40 1022.9
20260902213420 51 0 0.0 0.0 0.00 0.00 0.00 39 1022.9
20260902212420 51 0 0.0 0.0 0.00 0.00 0.00 36 1022.8
20260902211420 50 0 0.0 0.0 0.00 0.00 0.00 34 1022.8
20260902210419 51 0 0.0 0.0 0.00 0.00 0.00 33 1022.7
20260902205419 52 0 0.0 0.0 0.00 0.00 0.00 28 1022.7
20260902204419 52 0 0.0 0.0 0.00 0.00 0.00 27 1022.6
20260902203419 52 0 0.0 0.0 0.00 0.00 0.00 31 1022.6
20260902202418 52 0 0.0 0.0 0.00 0.00 0.00 27 1022.6
20260902201418 52 0 0.0 0.0 0.00 0.00 0.00 29 1022.5
20260902200418 53 0 0.0 0.0 0.00 0.00 0.00 27 1022.6
20260902195417 54 0 0.0 0.0 0.00 0.00 0.00 27 1022.7
20260902194417 54 0 0.0 0.0 0.00 0.00 0.00 26 1022.7
20260902193417 55 0 0.0 0.0 0.00 0.00 0.00 26 1022.7
20260902192416 55 0 0.0 0.0 0.00 0.00 0.00 26 1022.9
20260902191416 55 0 0.0 0.0 0.00 0.00 0.00 26 1022.9
20260902190416 57 0 0.0 0.0 0.00 0.00 0.00 26 1023.0
20260902185416 58 0 0.0 0.0 0.00 0.00 0.00 25 1023.2
20260902184416 58 1 0.0 0.0 0.00 0.00 0.00 25 1023.1
20260902183415 58 0 0.0 0.0 0.00 0.00 0.00 25 1023.0
20260902182415 59 0 0.0 0.0 0.00 0.00 0.00 25 1023.1
20260902181414 59 1 0.0 1.0 0.00 0.00 0.00 25 1023.0
20260902180414 60 1 0.0 1.0 0.00 0.00 0.00 25 1023.0
20260902175414 61 0 0.0 0.0 0.00 0.00 0.00 24 1022.9
20260902174413 62 0 0.0 0.0 0.00 0.00 0.00 24 1022.9
20260902173413 63 0 0.0 0.0 0.00 0.00 0.00 24 1023.0
20260902172413 64 0 0.0 0.0 0.00 0.00 0.00 24 1023.1
20260902171413 64 0 0.0 0.0 0.00 0.00 0.00 24 1023.1
20260902170412 65 0 0.0 0.0 0.00 0.00 0.00 23 1023.3
20260902165412 67 0 0.0 0.0 0.00 0.00 0.00 23 1023.4
20260902164412 68 0 0.0 0.0 0.00 0.00 0.00 22 1023.5
20260902163411 69 0 0.0 0.0 0.00 0.00 0.00 22 1023.5
20260902162411 70 0 0.0 0.0 0.00 0.00 0.00 22 1023.7
20260902161411 71 0 0.0 0.0 0.00 0.00 0.00 22 1023.8
20260902160411 73 225 0.0 0.0 0.00 0.00 0.00 21 1023.9
20260902155410 73 315 0.0 1.0 0.00 0.00 0.00 21 1024.0
20260902154410 73 302 0.0 2.0 0.00 0.00 0.00 21 1024.1
20260902153410 74 295 0.0 2.0 0.00 0.00 0.00 21 1024.2
20260902152409 78 283 0.0 3.0 0.00 0.00 0.00 20 1024.6
20260902151409 76 256 1.0 2.0 0.00 0.00 0.00 20 1024.4
20260902150409 79 227 2.0 5.0 0.00 0.00 0.00 20 1024.7
20260902145409 84 31 1.0 3.0 0.00 0.00 0.00 20 1025.1
20260902144408 81 43 3.0 4.0 0.00 0.00 0.00 20 1024.9
20260902143408 85 35 1.0 4.0 0.00 0.00 0.00 20 1025.3
20260902142408 83 66 1.0 3.0 0.00 0.00 0.00 20 1025.2
20260902141407 82 46 1.0 4.0 0.00 0.00 0.00 20 1024.9
20260902140407 80 90 1.0 2.0 0.00 0.00 0.00 20 1025.4
20260902135407 82 30 0.0 2.0 0.00 0.00 0.00 20 1025.3
20260902134406 75 17 1.0 5.0 0.00 0.00 0.00 20 1024.8
20260902133406 77 6 1.0 5.0 0.00 0.00 0.00 20 1025.0
20260902132406 77 290 0.0 2.0 0.00 0.00 0.00 20 1024.9
20260902131406 75 344 4.0 6.0 0.00 0.00 0.00 21 1024.9
20260902130405 78 346 3.0 8.0 0.00 0.00 0.00 20 1025.2
20260902125405 80 29 1.0 4.0 0.00 0.00 0.00 20 1025.5
20260902124405 76 49 0.0 2.0 0.00 0.00 0.00 20 1025.4
20260902123404 75 320 0.0 2.0 0.00 0.00 0.00 21 1025.5
20260902122404 76 314 0.0 0.0 0.00 0.00 0.00 20 1025.6
20260902121404 73 281 0.0 2.0 0.00 0.00 0.00 21 1025.5
20260902120404 74 314 0.0 1.0 0.00 0.00 0.00 21 1025.6
20260902115403 74 314 0.0 2.0 0.00 0.00 0.00 21 1025.6
20260902114403 74 2 1.0 3.0 0.00 0.00 0.00 21 1025.7
20260902113403 76 85 3.0 4.0 0.00 0.00 0.00 20 1025.9
20260902112402 77 98 3.0 5.0 0.00 0.00 0.00 20 1026.2
20260902111402 76 102 1.0 3.0 0.00 0.00 0.00 20 1025.9
20260902110402 74 49 3.0 4.0 0.00 0.00 0.00 21 1026.0
20260902105402 75 64 1.0 3.0 0.00 0.00 0.00 21 1026.4
20260902104401 74 62 1.0 3.0 0.00 0.00 0.00 21 1026.4
20260902103401 75 357 1.0 3.0 0.00 0.00 0.00 21 1026.6
20260902102401 72 326 1.0 3.0 0.00 0.00 0.00 21 1026.3
20260902101400 74 322 0.0 2.0 0.00 0.00 0.00 21 1026.7
20260902100400 71 0 0.0 0.0 0.00 0.00 0.00 22 1026.5
20260902095400 69 268 0.0 1.0 0.00 0.00 0.00 22 1026.4
20260902094359 68 238 0.0 1.0 0.00 0.00 0.00 23 1026.5
20260902093359 69 294 0.0 2.0 0.00 0.00 0.00 22 1026.5
20260902092359 69 0 0.0 0.0 0.00 0.00 0.00 22 1026.6
20260902091359 66 304 0.0 2.0 0.00 0.00 0.00 23 1026.4
20260902090358 66 277 0.0 3.0 0.00 0.00 0.00 23 1026.5
20260902085358 65 278 1.0 4.0 0.00 0.00 0.00 23 1026.4
20260902084358 71 288 1.0 5.0 0.00 0.00 0.00 22 1026.9
20260902083357 67 304 1.0 5.0 0.00 0.00 0.00 23 1026.9
20260902082357 72 341 1.0 3.0 0.00 0.00 0.00 22 1026.6
20260902081357 65 327 2.0 4.0 0.00 0.00 0.00 23 1026.5
20260902080357 68 349 0.0 3.0 0.00 0.00 0.00 22 1026.8
20260902075356 66 53 0.0 2.0 0.00 0.00 0.00 23 1026.6
20260902074356 64 90 0.0 2.0 0.00 0.00 0.00 24 1026.2
20260902073356 60 49 1.0 3.0 0.00 0.00 0.00 25 1026.0
20260902072355 61 85 0.0 2.0 0.00 0.00 0.00 24 1026.1
20260902071355 58 75 1.0 3.0 0.00 0.00 0.00 25 1025.7
20260902070355 57 70 1.0 4.0 0.00 0.00 0.00 25 1025.5
20260902065354 57 90 0.0 1.0 0.00 0.00 0.00 25 1025.4
20260902064354 57 62 0.0 2.0 0.00 0.00 0.00 26 1025.4
20260902063354 56 0 0.0 0.0 0.00 0.00 0.00 26 1025.3
20260902062354 54 0 0.0 0.0 0.00 0.00 0.00 26 1025.1
20260902061353 53 0 0.0 0.0 0.00 0.00 0.00 27 1025.1
20260902060353 52 0 0.0 0.0 0.00 0.00 0.00 27 1025.1
20260902055353 53 0 0.0 0.0 0.00 0.00 0.00 27 1025.1
20260902054352 53 0 0.0 0.0 0.00 0.00 0.00 27 1025.1
20260902053352 54 1 0.0 0.0 0.00 0.00 0.00 27 1025.2
20260902052352 52 0 0.0 0.0 0.00 0.00 0.00 27 1025.0
20260902051352 54 0 0.0 0.0 0.00 0.00 0.00 26 1025.1
20260902050351 51 0 0.0 0.0 0.00 0.00 0.00 27 1024.8
20260902045351 49 0 0.0 0.0 0.00 0.00 0.00 38 1024.5
20260902044351 46 0 0.0 0.0 0.00 0.00 0.00 45 1024.2
20260902043350 47 0 0.0 0.0 0.00 0.00 0.00 57 1024.2
20260902042350 45 0 0.0 0.0 0.00 0.00 0.00 61 1024.0
20260902041350 46 0 0.0 0.0 0.00 0.00 0.00 61 1024.0
20260902040350 46 0 0.0 0.0 0.00 0.00 0.00 62 1024.1
20260902035349 45 0 0.0 0.0 0.00 0.00 0.00 62 1024.1
20260902034349 45 0 0.0 0.0 0.00 0.00 0.00 62 1024.0
20260902033349 45 0 0.0 0.0 0.00 0.00 0.00 62 1023.9
20260902032348 45 0 0.0 0.0 0.00 0.00 0.00 61 1023.9
20260902031348 44 45 0.0 0.0 0.00 0.00 0.00 61 1023.9
20260902030348 46 45 0.0 0.0 0.00 0.00 0.00 62 1024.0
20260902025347 45 0 0.0 0.0 0.00 0.00 0.00 62 1024.0
20260902024347 45 0 0.0 0.0 0.00 0.00 0.00 61 1024.0
20260902023347 45 0 0.0 0.0 0.00 0.00 0.00 61 1024.0
20260902022347 45 0 0.0 0.0 0.00 0.00 0.00 61 1023.9